Traverse City, MI

7:44 AM EST on February 24, 2018 (GMT -0500)
Cherry Capital

Weather History for KTVC - April, 2013

Change the Weather History Date:

Wednesday, April 3, 2013

  Actual Average Record
Temperature  
Mean Temperature 30 °F 38 °F  
Max Temperature 38 °F 48 °F 73 °F (1981)
Min Temperature 22 °F 28 °F 3 °F (1965)
Degree Days  
Heating Degree Days 35 27  
Month to date heating degree days 109 83  
Since 1 July heating degree days 6069 6485  
Cooling Degree Days 0 0  
Month to date cooling degree days 0 0  
Year to date cooling degree days 0 0  
Moisture  
Dew Point 14 °F    
Average Humidity 53    
Maximum Humidity 68    
Minimum Humidity 37    
Precipitation  
Precipitation T in 0.08 in 1.10 in (2006)
Month to date precipitation T 0.26  
Year to date precipitation 5.11 6.44  
Sea Level Pressure  
Sea Level Pressure 30.36 in    
Wind  
Wind Speed 5 mph (NNW)    
Max Wind Speed 17 mph    
Max Gust Speed 23 mph    
Visibility 10 miles    
Events Snow    
T = Trace of Precipitation, MM = Missing Value Source: NWS Daily Summary

Daily Weather History Graph

Daily Weather History Graph

Search for Another Location

Airport or City:

Trip Planner

Search our weather history database for the weather conditions in past years. The results will help you decide how hot, cold, wet, or windy it might be!

Date:

Astronomy

Apr. 03, 2013 Rise Set
Actual Time 7:19 AM EDT 8:12 PM EDT
Civil Twilight 6:49 AM EDT 8:42 PM EDT
Nautical Twilight 6:14 AM EDT 9:17 PM EDT
Astronomical Twilight 5:37 AM EDT 9:55 PM EDT
Moon 3:15 AM EDT (4/3) 1:08 PM EDT (4/3)
Length of Visible Light 13h 53m
Length of Day
12h 53m
Last Quarter, 45% of the Moon is Illuminated
Apr 3
Last Quarter
Apr 10
New
Apr 18
First Quarter
Apr 25
Full
May 2
Last Quarter

Hourly Weather History & Observations

Time (EDT) Temp. Windchill Dew Point Humidity Pressure Visibility Wind Dir Wind Speed Gust Speed Precip Events Conditions
12:53 AM 28.0 °F 24.2 °F 12.9 °F 53% 30.27 in 10.0 mi NNW 3.5 mph - N/A   Clear
1:53 AM 24.1 °F - 14.0 °F 65% 30.28 in 10.0 mi Calm Calm - N/A   Clear
2:53 AM 23.0 °F - 14.0 °F 68% 30.28 in 10.0 mi Calm Calm - N/A   Mostly Cloudy
3:53 AM 24.1 °F - 14.0 °F 65% 30.28 in 10.0 mi Calm Calm - N/A   Overcast
4:53 AM 27.0 °F 18.7 °F 12.0 °F 53% 30.30 in 10.0 mi NNW 8.1 mph - N/A   Overcast
5:53 AM 28.0 °F 19.3 °F 12.9 °F 53% 30.32 in 10.0 mi NNW 9.2 mph - N/A   Overcast
6:53 AM 27.0 °F 18.7 °F 12.0 °F 53% 30.34 in 10.0 mi NNW 8.1 mph - N/A   Partly Cloudy
7:53 AM 28.0 °F 24.2 °F 12.9 °F 53% 30.36 in 10.0 mi NNW 3.5 mph - N/A   Scattered Clouds
8:53 AM 30.0 °F 23.2 °F 12.9 °F 49% 30.38 in 10.0 mi NNW 6.9 mph - N/A   Scattered Clouds
9:53 AM 30.0 °F 19.5 °F 14.0 °F 51% 30.40 in 8.0 mi NNW 13.8 mph - 0.00 in Snow Light Snow
10:53 AM 30.0 °F 20.5 °F 12.9 °F 49% 30.42 in 10.0 mi North 11.5 mph - 0.00 in   Mostly Cloudy
11:53 AM 33.1 °F 23.9 °F 15.1 °F 48% 30.44 in 10.0 mi NW 12.7 mph 18.4 mph N/A   Mostly Cloudy
12:53 PM 34.0 °F 27.2 °F 14.0 °F 44% 30.45 in 10.0 mi North 8.1 mph - N/A   Scattered Clouds
1:53 PM 35.1 °F 28.6 °F 12.9 °F 40% 30.44 in 10.0 mi North 8.1 mph - N/A   Scattered Clouds
2:53 PM 36.0 °F 33.3 °F 14.0 °F 41% 30.43 in 10.0 mi Variable 3.5 mph - N/A   Partly Cloudy
3:53 PM 37.0 °F 30.4 °F 15.1 °F 41% 30.42 in 10.0 mi WSW 9.2 mph 16.1 mph N/A   Partly Cloudy
4:53 PM 37.0 °F 33.3 °F 14.0 °F 39% 30.40 in 10.0 mi Variable 4.6 mph - N/A   Clear
5:53 PM 35.1 °F 28.6 °F 16.0 °F 46% 30.36 in 10.0 mi NNE 8.1 mph - N/A   Partly Cloudy
6:53 PM 35.1 °F - 16.0 °F 46% 30.35 in 10.0 mi Calm Calm - N/A   Partly Cloudy
7:53 PM 34.0 °F - 18.0 °F 52% 30.34 in 10.0 mi Calm Calm - N/A   Partly Cloudy
8:53 PM 30.0 °F - 18.0 °F 61% 30.34 in 10.0 mi Calm Calm - N/A   Partly Cloudy
9:53 PM 30.9 °F 27.5 °F 16.0 °F 54% 30.33 in 10.0 mi WSW 3.5 mph - N/A   Partly Cloudy
10:53 PM 28.9 °F - 17.1 °F 61% 30.32 in 10.0 mi Calm Calm - N/A   Clear
11:53 PM 28.9 °F - 16.0 °F 58% 30.29 in 10.0 mi Calm Calm - N/A   Clear